Little Rock AFB, AR

9:22 PM CST on December 09, 2016 (GMT -0600)
Little Rock Air Force Base

Weather History for KLRF - January, 2013

Change the Weather History Date:

Sunday, January 6, 2013

  Actual Average Record
Temperature  
Mean Temperature 39 °F -  
Max Temperature 53 °F 48 °F 74 °F (1982)
Min Temperature 25 °F 30 °F 10 °F (2014)
Degree Days  
Heating Degree Days 26    
Moisture  
Dew Point 28 °F    
Average Humidity 75    
Maximum Humidity 94    
Minimum Humidity 41    
Precipitation  
Precipitation 0.00 in - - ()
Sea Level Pressure  
Sea Level Pressure 30.32 in    
Wind  
Wind Speed 2 mph (West)    
Max Wind Speed 8 mph    
Max Gust Speed -    
Visibility 10 miles    
Events      
Averages and records for this station are not official NWS values.
T = Trace of Precipitation, MM = Missing Value Source: NWS Daily Summary

Daily Weather History Graph

Daily Weather History Graph

Search for Another Location

Airport or City:

Trip Planner

Search our weather history database for the weather conditions in past years. The results will help you decide how hot, cold, wet, or windy it might be!

Date:

Astronomy

Jan. 06, 2013 Rise Set
Actual Time 7:16 AM CST 5:12 PM CST
Civil Twilight 6:49 AM CST 5:40 PM CST
Nautical Twilight 6:17 AM CST 6:11 PM CST
Astronomical Twilight 5:47 AM CST 6:42 PM CST
Moon 1:37 AM CST (1/6) 12:35 PM CST (1/6)
Length of Visible Light 10h 51m
Length of Day
9h 55m
Waning Crescent, 33% of the Moon is Illuminated
Jan 6
Waning Crescent
Jan 11
New
Jan 18
First Quarter
Jan 26
Full
Feb 3
Last Quarter

Hourly Weather History & Observations

Time (CST) Temp. Windchill Dew Point Humidity Pressure Visibility Wind Dir Wind Speed Gust Speed Precip Events Conditions
12:55 AM 29.3 °F - 27.3 °F 92% 30.27 in 10.0 mi Calm Calm - N/A   Clear
1:55 AM 27.9 °F - 25.7 °F 92% 30.27 in 10.0 mi Calm Calm - N/A   Clear
2:55 AM 27.1 °F 21.8 °F 24.8 °F 91% 30.27 in 10.0 mi WSW 4.6 mph - N/A   Clear
3:55 AM 27.3 °F - 25.0 °F 91% 30.27 in 10.0 mi Calm Calm - N/A   Clear
4:55 AM 27.1 °F - 25.2 °F 92% 30.27 in 10.0 mi Calm Calm - N/A   Clear
5:55 AM 26.4 °F - 23.9 °F 90% 30.27 in 10.0 mi Calm Calm - N/A   Clear
6:55 AM 25.7 °F - 23.5 °F 92% 30.29 in 10.0 mi Calm Calm - N/A   Clear
7:55 AM 25.9 °F - 23.5 °F 91% 30.29 in 10.0 mi Calm Calm - N/A   Clear
8:55 AM 36.1 °F 32.3 °F 34.5 °F 94% 30.32 in 10.0 mi SW 4.6 mph - N/A   Clear
9:55 AM 41.4 °F 36.8 °F 35.1 °F 78% 30.33 in 10.0 mi West 6.9 mph - N/A   Clear
10:55 AM 45.0 °F 42.6 °F 34.7 °F 67% 30.33 in 10.0 mi WSW 4.6 mph - N/A   Clear
11:55 AM 48.4 °F - 31.3 °F 52% 30.31 in 10.0 mi Variable 3.5 mph - N/A   Clear
12:55 PM 50.7 °F - 31.3 °F 47% 30.30 in 10.0 mi NW 5.8 mph - N/A   Clear
1:55 PM 52.2 °F - 31.3 °F 45% 30.29 in 10.0 mi Variable 4.6 mph - N/A   Clear
2:55 PM 53.1 °F - 31.5 °F 44% 30.29 in 10.0 mi NW 8.1 mph - N/A   Clear
3:55 PM 53.8 °F - 30.7 °F 41% 30.30 in 10.0 mi WNW 4.6 mph - N/A   Clear
4:55 PM 50.2 °F - 31.5 °F 49% 30.32 in 10.0 mi West 5.8 mph - N/A   Clear
5:55 PM 41.7 °F - 30.6 °F 65% 30.34 in 10.0 mi Calm Calm - N/A   Clear
6:55 PM 37.0 °F - 29.1 °F 73% 30.37 in 10.0 mi Calm Calm - N/A   Clear
7:55 PM 34.2 °F - 26.4 °F 73% 30.38 in 10.0 mi Calm Calm - N/A   Clear
8:55 PM 31.5 °F - 26.1 °F 80% 30.39 in 10.0 mi Calm Calm - N/A   Clear
9:55 PM 28.8 °F 25.0 °F 25.7 °F 88% 30.39 in 10.0 mi ENE 3.5 mph - N/A   Clear
10:55 PM 28.0 °F - 23.9 °F 84% 30.41 in 10.0 mi Calm Calm - N/A   Clear
11:55 PM 26.8 °F - 23.2 °F 86% 30.41 in 10.0 mi Calm Calm - N/A   Clear